Date String (YYYY-MM-DD hh:mm:ss) UTC,Instrument flags,absolute air pressure of the measurement (hPa),sample flow rate (lpm),inlet stack bypass flow (lpm),air temperature of the measurement (°C),ambient temperature measured by the external sensor (°C),aerosol sample conditioner tube jacket temperature (°C),OPC LED temperature (°C),internal box temperature (°C),relative humidity of the measurement (%),span deviation,mass concentration of particles derived from Lorenz-Mie calculation of OPC scattering (μg/m³),mass concentration of particles derived from Lorenz-Mie calculation of OPC scattering (μg/m³),mass concentration of particles derived from Lorenz-Mie calculation of OPC scattering (μg/m³)
DateTimeUTC,F1_M11,P_M11,Q1_M11,Q2_M11,T1_M11,T2_M11,T3_M11,T4_M11,T5_M11,U1_M11,ZSPAN_M11,X2_M11,X0_M11,X1_M11
2024-05-26 01:00:00,SystemResetWarning,0820.6,5.01,000.00,031.5,030.7,000.0,039.9,033.1,016.2,0000.0,0002.21,0009.21,0001.13
2024-05-26 01:01:00,SystemResetWarning,0820.6,5.01,000.00,031.5,030.7,000.0,039.9,033.1,016.3,0000.0,0002.17,0008.77,0001.13
2024-05-26 01:02:00,SystemResetWarning,0820.7,5.01,000.00,031.5,030.7,000.0,039.9,033.1,016.4,0000.0,0002.18,0008.44,0001.12
2024-05-26 01:03:00,SystemResetWarning,0820.7,5.00,000.00,031.5,030.7,000.0,039.9,033.1,016.3,0000.0,0002.23,0008.01,0001.11
2024-05-26 01:04:00,SystemResetWarning,0820.8,5.00,000.00,031.5,030.7,000.0,039.9,033.1,016.4,0000.0,0002.22,0007.81,0001.13
2024-05-26 01:05:00,SystemResetWarning,0820.8,5.00,000.00,031.5,030.7,000.0,039.9,033.2,016.4,0000.0,0002.27,0007.55,0001.15
2024-05-26 01:06:00,SystemResetWarning,0820.8,5.00,000.00,031.5,030.7,000.0,039.9,033.2,016.4,0000.0,0002.32,0007.72,0001.15
2024-05-26 01:07:00,SystemResetWarning,0820.8,5.00,000.00,031.5,030.7,000.0,039.9,033.2,016.3,0000.0,0002.35,0007.55,0001.15
2024-05-26 01:08:00,SystemResetWarning,0820.9,5.00,000.00,031.5,030.7,000.0,039.9,033.2,016.4,0000.0,0002.36,0006.48,0001.17
2024-05-26 01:09:00,SystemResetWarning,0821.0,5.00,000.00,031.5,030.7,000.0,039.9,033.2,016.4,0000.0,0002.31,0005.77,0001.17
2024-05-26 01:10:00,SystemResetWarning,0820.9,5.00,000.00,031.6,030.7,000.0,039.9,033.2,016.3,0000.0,0002.31,0005.75,0001.17
2024-05-26 01:11:00,SystemResetWarning,0821.0,5.00,000.00,031.6,030.8,000.0,039.9,033.2,016.2,0000.0,0002.35,0005.75,0001.16
2024-05-26 01:12:00,SystemResetWarning,0821.1,5.00,000.00,031.6,030.8,000.0,039.9,033.2,016.2,0000.0,0002.41,0007.62,0001.16
2024-05-26 01:13:00,SystemResetWarning,0821.0,5.00,000.00,031.6,030.8,000.0,039.9,033.2,016.1,0000.0,0002.43,0008.82,0001.17
2024-05-26 01:14:00,SystemResetWarning,0821.0,5.01,000.00,031.6,030.8,000.0,040.0,033.2,016.2,0000.0,0002.37,0009.14,0001.16
2024-05-26 01:15:00,SystemResetWarning,0821.1,5.01,000.00,031.6,030.8,000.0,040.0,033.2,016.2,0000.0,0002.37,0009.50,0001.15
2024-05-26 01:16:00,SystemResetWarning,0821.1,4.99,000.00,031.6,030.8,000.0,040.0,033.2,016.1,0000.0,0002.40,0009.52,0001.13
2024-05-26 01:17:00,SystemResetWarning,0821.3,4.99,000.00,031.6,030.8,000.0,040.0,033.2,016.0,0000.0,0002.38,0009.51,0001.12
2024-05-26 01:18:00,SystemResetWarning,0821.2,4.99,000.00,031.6,030.8,000.0,040.0,033.2,016.0,0000.0,0002.38,0010.22,0001.12
2024-05-26 01:19:00,SystemResetWarning,0821.1,5.01,000.00,031.6,030.8,000.0,040.0,033.2,016.2,0000.0,0002.42,0010.31,0001.12
2024-05-26 01:20:00,SystemResetWarning,0821.2,5.00,000.00,031.6,030.8,000.0,040.0,033.2,016.5,0000.0,0002.46,0010.56,0001.12
2024-05-26 01:21:00,SystemResetWarning,0821.3,4.99,000.00,031.6,030.8,000.0,040.0,033.2,016.5,0000.0,0002.53,0010.67,0001.12
2024-05-26 01:22:00,SystemResetWarning,0821.3,4.99,000.00,031.6,030.8,000.0,040.0,033.2,016.5,0000.0,0002.54,0011.06,0001.12
2024-05-26 01:23:00,SystemResetWarning,0821.3,5.00,000.00,031.6,030.8,000.0,040.0,033.2,016.6,0000.0,0002.53,0010.52,0001.12
2024-05-26 01:24:00,SystemResetWarning,0821.3,5.01,000.00,031.6,030.8,000.0,040.0,033.2,016.5,0000.0,0002.51,0009.44,0001.11
2024-05-26 01:25:00,SystemResetWarning,0821.4,5.01,000.00,031.6,030.8,000.0,040.0,033.2,016.9,0000.0,0002.50,0009.13,0001.10
2024-05-26 01:26:00,SystemResetWarning,0822.0,5.00,000.00,031.6,030.8,000.0,040.0,033.2,017.0,0000.0,0002.55,0008.77,0001.12
2024-05-26 01:27:00,SystemResetWarning,0821.8,4.99,000.00,031.6,030.8,000.0,040.0,033.2,017.3,0000.0,0002.59,0008.72,0001.14
2024-05-26 01:28:00,SystemResetWarning,0821.6,4.99,000.00,031.6,030.8,000.0,040.0,033.2,017.2,0000.0,0002.59,0008.70,0001.15
2024-05-26 01:29:00,SystemResetWarning,0821.7,5.00,000.00,031.6,030.8,000.0,040.0,033.2,017.1,0000.0,0002.63,0007.94,0001.18
2024-05-26 01:30:00,SystemResetWarning,0821.8,5.01,000.00,031.6,030.8,000.0,040.0,033.2,017.6,0000.0,0002.63,0008.45,0001.19
2024-05-26 01:31:00,SystemResetWarning,0821.8,5.01,000.00,031.6,030.8,000.0,040.0,033.2,017.8,0000.0,0002.61,0008.44,0001.19
2024-05-26 01:32:00,SystemResetWarning,0821.9,5.00,000.00,031.6,030.8,000.0,040.0,033.2,017.7,0000.0,0002.55,0008.37,0001.18
2024-05-26 01:33:00,SystemResetWarning,0822.0,5.00,000.00,031.6,030.8,000.0,040.0,033.2,017.9,0000.0,0002.46,0007.88,0001.18
2024-05-26 01:34:00,SystemResetWarning,0822.1,4.99,000.00,031.6,030.8,000.0,040.0,033.2,018.2,0000.0,0002.42,0007.57,0001.18
2024-05-26 01:35:00,SystemResetWarning,0822.2,4.99,000.00,031.6,030.8,000.0,040.0,033.2,018.5,0000.0,0002.49,0007.59,0001.20
2024-05-26 01:36:00,SystemResetWarning,0822.2,5.01,000.00,031.6,030.8,000.0,040.0,033.2,017.8,0000.0,0002.60,0007.97,0001.21
2024-05-26 01:37:00,SystemResetWarning,0822.3,5.00,000.00,031.6,030.8,000.0,040.0,033.2,016.5,0000.0,0002.65,0008.13,0001.19
2024-05-26 01:38:00,SystemResetWarning,0822.3,5.01,000.00,031.6,030.8,000.0,040.0,033.2,016.5,0000.0,0002.58,0008.63,0001.17
2024-05-26 01:39:00,SystemResetWarning,0822.3,5.00,000.00,031.6,030.8,000.0,040.0,033.2,016.6,0000.0,0002.58,0008.96,0001.15
2024-05-26 01:40:00,SystemResetWarning,0822.4,4.99,000.00,031.6,030.8,000.0,040.0,033.2,016.8,0000.0,0002.65,0009.17,0001.14
2024-05-26 01:41:00,SystemResetWarning,0822.3,4.99,000.00,031.6,030.8,000.0,040.0,033.2,016.7,0000.0,0002.68,0009.02,0001.13
2024-05-26 01:42:00,SystemResetWarning,0822.2,5.00,000.00,031.6,030.8,000.0,040.0,033.2,015.3,0000.0,0002.62,0008.96,0001.08
2024-05-26 01:43:00,SystemResetWarning,0822.1,5.00,000.00,031.6,030.7,000.0,040.0,033.2,015.6,0000.0,0002.45,0008.77,0001.00
2024-05-26 01:44:00,SystemResetWarning,0822.0,5.00,000.00,031.5,030.7,000.0,040.0,033.2,015.7,0000.0,0002.35,0008.60,0000.92
2024-05-26 01:45:00,SystemResetWarning,0822.0,5.00,000.00,031.5,030.6,000.0,040.0,033.2,015.7,0000.0,0002.22,0008.14,0000.83
2024-05-26 01:46:00,SystemResetWarning,0822.1,5.00,000.00,031.5,030.6,000.0,040.0,033.1,015.4,0000.0,0001.98,0007.56,0000.73
2024-05-26 01:47:00,SystemResetWarning,0822.1,5.00,000.00,031.5,030.5,000.0,040.0,033.1,015.6,0000.0,0001.69,0006.66,0000.63
2024-05-26 01:48:00,SystemResetWarning,0822.0,4.99,000.00,031.4,030.4,000.0,040.0,033.1,015.7,0000.0,0001.44,0007.04,0000.55
2024-05-26 01:49:00,SystemResetWarning,0822.1,5.00,000.00,031.4,030.4,000.0,039.9,033.0,015.6,0000.0,0001.29,0006.14,0000.49
2024-05-26 01:50:00,SystemResetWarning,0822.1,5.00,000.00,031.4,030.3,000.0,039.9,033.0,015.6,0000.0,0001.10,0005.04,0000.40
2024-05-26 01:51:00,SystemResetWarning,0822.2,5.00,000.00,031.4,030.3,000.0,039.9,033.0,015.5,0000.0,0000.78,0004.24,0000.30
2024-05-26 01:52:00,SystemResetWarning,0822.4,5.00,000.00,031.3,030.2,000.0,039.9,033.0,015.5,0000.0,0000.51,0002.97,0000.21
2024-05-26 01:53:00,SystemResetWarning,0822.3,5.01,000.00,031.3,030.2,000.0,039.9,033.0,015.6,0000.0,0000.36,0002.39,0000.15
2024-05-26 01:54:00,SystemResetWarning,0822.3,5.00,000.00,031.3,030.2,000.0,039.9,033.0,015.6,0000.0,0000.35,0003.35,0000.13
2024-05-26 01:55:00,SystemResetWarning,0822.3,5.00,000.00,031.3,030.2,000.0,039.8,032.9,015.2,0000.0,0000.32,0004.26,0000.13
2024-05-26 01:56:00,SystemResetWarning,0822.4,5.00,000.00,031.3,030.1,000.0,039.8,032.9,015.5,0000.0,0000.30,0004.20,0000.12
2024-05-26 01:57:00,SystemResetWarning,0822.5,4.99,000.00,031.2,030.1,000.0,039.8,032.9,015.7,0000.0,0000.31,0004.47,0000.11
2024-05-26 01:58:00,SystemResetWarning,0822.4,4.99,000.00,031.2,030.0,000.0,039.8,032.8,015.7,0000.0,0000.35,0006.18,0000.11
2024-05-26 01:59:00,SystemResetWarning,0822.5,4.99,000.00,031.2,030.0,000.0,039.8,032.8,015.5,0000.0,0000.36,0005.52,0000.10
